EW0362 Weather Reports


time (UTC)temp
C
wind
direction
speed
KPH
gust
KPH
rain 1hr
cm
rain 24hr
cm
rain mn
cm
humidity
%
barometer
mb
20260831082204 15 167 0.0 0.0 0.00 0.00 0.00 93 1018.3
20260831080704 16 167 0.0 0.0 0.00 0.00 0.00 93 1018.2
20260831080204 16 167 0.0 0.0 0.00 0.00 0.00 93 1018.1
20260831075704 16 167 0.0 0.0 0.00 0.00 0.00 93 1018.1
20260831074704 16 167 0.0 0.0 0.00 0.00 0.00 93 1017.9
20260831073704 16 167 0.0 0.0 0.00 0.00 0.00 93 1017.8
20260831072704 16 167 0.0 0.0 0.00 0.00 0.00 93 1017.9
20260831072204 16 167 0.0 0.0 0.00 0.00 0.00 93 1017.9
20260831071704 16 167 0.0 0.0 0.00 0.00 0.00 93 1017.8
20260831063704 17 167 0.0 0.0 0.00 0.00 0.00 92 1017.6
20260831063204 17 167 0.0 0.0 0.00 0.00 0.00 92 1017.6
20260831061204 17 167 0.0 0.0 0.00 0.00 0.00 92 1017.4
20260831055204 18 167 0.0 0.0 0.00 0.00 0.00 91 1017.3
20260831054704 18 167 0.0 0.0 0.00 0.00 0.00 91 1017.4
20260831053704 18 167 0.0 0.0 0.00 0.00 0.00 91 1017.3
20260831051704 18 167 0.0 0.0 0.00 0.00 0.00 90 1017.2
20260831051204 18 167 0.0 0.0 0.00 0.00 0.00 90 1017.2
20260831050704 18 167 0.0 0.0 0.00 0.00 0.00 91 1017.2
20260831045704 19 167 0.0 0.0 0.00 0.00 0.00 90 1017.2
20260831045204 19 167 0.0 0.0 0.00 0.00 0.00 90 1017.2
20260831044704 19 167 0.0 0.0 0.00 0.00 0.00 89 1017.0
20260831044204 19 167 0.0 0.0 0.00 0.00 0.00 89 1016.8
20260831043204 20 167 0.0 0.0 0.00 0.00 0.00 89 1016.7
20260831042704 20 167 0.0 0.0 0.00 0.00 0.00 89 1016.7
20260831042204 20 167 0.0 0.0 0.00 0.00 0.00 89 1016.6
20260831041203 20 167 0.0 0.0 0.00 0.00 0.00 88 1016.6
20260831040204 20 167 0.0 0.0 0.00 0.00 0.00 88 1016.5
20260831035704 20 167 0.0 0.0 0.00 0.00 0.00 89 1016.6
20260831034204 20 167 0.0 0.0 0.00 0.00 0.00 88 1016.6
20260831032703 20 167 0.0 0.0 0.00 0.00 0.00 88 1016.7
20260831030204 21 167 0.0 0.0 0.00 0.00 0.00 89 1016.6
20260831025204 21 167 0.0 0.0 0.00 0.00 0.00 89 1016.6
20260831024204 21 167 0.0 0.0 0.00 0.00 0.00 89 1016.5
20260831022203 21 168 0.0 0.0 0.00 0.00 0.00 90 1016.5
20260831021704 21 169 0.0 0.0 0.00 0.00 0.00 90 1016.4
20260831021204 21 169 0.0 1.6 0.00 0.00 0.00 89 1016.4
20260831020204 21 169 0.0 0.0 0.00 0.00 0.00 89 1016.4
20260831015704 21 169 0.0 0.0 0.00 0.00 0.00 89 1016.4
20260831012204 21 169 0.0 0.0 0.00 0.00 0.00 88 1016.0
20260831011204 21 169 0.0 0.0 0.00 0.00 0.00 86 1015.9
20260831010204 21 169 0.0 0.0 0.00 0.00 0.00 86 1015.8
20260831005204 21 169 0.0 0.0 0.00 0.00 0.00 86 1015.8
20260831004203 21 169 0.0 0.0 0.00 0.00 0.00 84 1015.5
20260831003704 21 169 0.0 0.0 0.00 0.00 0.00 84 1015.5
20260831003204 21 169 0.0 0.0 0.00 0.00 0.00 84 1015.5
20260831000204 22 169 0.0 0.0 0.00 0.00 0.00 84 1015.2
20260830234704 22 169 0.0 0.0 0.00 0.00 0.00 84 1015.0
20260830233204 22 169 0.0 0.0 0.00 0.00 0.00 83 1014.9
20260830232704 22 169 0.0 0.0 0.00 0.00 0.00 83 1014.9
20260830231704 22 169 0.0 0.0 0.00 0.00 0.00 81 1015.0
20260830231204 22 169 0.0 0.0 0.00 0.00 0.00 81 1015.0
20260830230204 22 169 0.0 0.0 0.00 0.00 0.00 79 1015.0
20260830225703 22 169 0.0 0.0 0.00 0.00 0.00 79 1015.1
20260830224204 23 169 0.0 0.0 0.00 0.00 0.00 80 1015.3
20260830223704 23 169 0.0 0.0 0.00 0.00 0.00 80 1015.2
20260830223204 23 169 0.0 0.0 0.00 0.00 0.00 81 1015.3
20260830222703 23 169 0.0 0.0 0.00 0.00 0.00 80 1015.3
20260830221703 23 169 0.0 0.0 0.00 0.00 0.00 80 1015.4
20260830221204 23 169 0.0 0.0 0.00 0.00 0.00 79 1015.5
20260830215704 23 169 0.0 0.0 0.00 0.00 0.00 79 1015.4
20260830215204 23 169 0.0 3.2 0.00 0.00 0.00 79 1015.4
20260830213704 23 169 0.0 0.0 0.00 0.00 0.00 78 1015.4
20260830212204 24 169 0.0 0.0 0.00 0.00 0.00 77 1015.4
20260830211703 24 169 0.0 3.2 0.00 0.00 0.00 76 1015.5
20260830210704 24 170 0.0 3.2 0.00 0.00 0.00 78 1015.6
20260830210204 24 170 0.0 1.6 0.00 0.00 0.00 77 1015.7
20260830205704 24 170 0.0 1.6 0.00 0.00 0.00 77 1015.6
20260830204704 24 170 0.0 1.6 0.00 0.00 0.00 77 1015.6
20260830204204 24 170 0.0 1.6 0.00 0.00 0.00 78 1015.6
20260830202704 24 63 0.0 3.2 0.00 0.00 0.00 79 1015.7
20260830202204 24 63 0.0 1.6 0.00 0.00 0.00 78 1015.8
20260830201703 24 63 0.0 1.6 0.00 0.00 0.00 78 1015.8
20260830201204 23 62 0.0 1.6 0.00 0.00 0.00 78 1015.9
20260830195204 23 316 0.0 0.0 0.00 0.00 0.00 78 1015.9
20260830192704 24 300 0.0 0.0 0.00 0.00 0.00 77 1016.4
20260830191704 25 300 0.0 0.0 0.00 0.00 0.00 75 1016.6
20260830191204 25 300 0.0 0.0 0.00 0.00 0.00 74 1016.6
20260830190704 25 300 0.0 0.0 0.00 0.00 0.00 74 1016.6
20260830185204 25 300 0.0 0.0 0.00 0.00 0.00 69 1016.7
20260830184704 25 300 0.0 0.0 0.00 0.00 0.00 72 1016.8
20260830184204 25 300 0.0 0.0 0.00 0.00 0.00 73 1016.8
20260830183204 25 355 0.0 4.8 0.00 0.00 0.00 71 1016.9
20260830180203 25 26 0.0 3.2 0.00 0.00 0.00 73 1017.3
20260830175704 25 55 0.0 1.6 0.00 0.00 0.00 71 1017.5
20260830174703 25 118 0.0 1.6 0.00 0.00 0.00 70 1017.7
20260830173704 25 252 1.6 3.2 0.00 0.00 0.00 69 1017.6
20260830171204 25 339 1.6 4.8 0.00 0.00 0.00 71 1017.7
20260830170703 25 160 1.6 4.8 0.00 0.00 0.00 68 1017.7
20260830165203 24 265 3.2 11.3 0.00 0.00 0.00 67 1017.9
20260830162703 24 270 1.6 4.8 0.00 0.00 0.00 72 1018.2
20260830162204 24 30 0.0 4.8 0.00 0.00 0.00 70 1018.2
20260830161703 24 296 0.0 3.2 0.00 0.00 0.00 71 1018.3
20260830160704 24 304 0.0 3.2 0.00 0.00 0.00 75 1018.3
20260830155204 24 67 1.6 4.8 0.00 0.00 0.00 71 1018.4
20260830154704 24 265 0.0 4.8 0.00 0.00 0.00 71 1018.4
20260830154204 24 195 1.6 8.0 0.00 0.00 0.00 74 1018.3
20260830153704 24 217 1.6 4.8 0.00 0.00 0.00 71 1018.3
20260830153204 24 233 1.6 4.8 0.00 0.00 0.00 73 1018.4
20260830152703 25 49 0.0 1.6 0.00 0.00 0.00 76 1018.4
20260830151703 24 41 0.0 1.6 0.00 0.00 0.00 75 1018.5
20260830150703 24 298 0.0 4.8 0.00 0.00 0.00 74 1018.6
20260830145703 24 153 1.6 8.0 0.00 0.00 0.00 74 1018.6
20260830144203 23 268 3.2 12.9 0.00 0.00 0.00 74 1018.6
20260830143703 22 246 1.6 8.0 0.00 0.00 0.00 81 1018.6
20260830142704 21 313 0.0 1.6 0.00 0.00 0.00 82 1018.6
20260830142203 21 311 0.0 1.6 0.00 0.00 0.00 83 1018.7
20260830141705 21 334 0.0 3.2 0.00 0.00 0.00 83 1018.8
20260830141203 21 345 1.6 3.2 0.00 0.00 0.00 82 1018.9
20260830140703 20 0 0.0 0.0 0.00 0.00 0.00 83 1019.0
20260830140203 20 0 0.0 0.0 0.00 0.00 0.00 82 1019.1
20260830135703 20 0 0.0 3.2 0.00 0.00 0.00 83 1019.2
20260830134203 19 5 0.0 0.0 0.00 0.00 0.00 87 1019.1
20260830133702 18 5 0.0 0.0 0.00 0.00 0.00 87 1019.1
20260830133203 18 5 0.0 0.0 0.00 0.00 0.00 89 1019.1
20260830131703 18 20 0.0 0.0 0.00 0.00 0.00 92 1019.3
20260830125703 17 20 0.0 0.0 0.00 0.00 0.00 97 1019.5
20260830125202 17 20 0.0 0.0 0.00 0.00 0.00 97 1019.5
20260830124703 16 20 0.0 0.0 0.00 0.00 0.00 97 1019.6
20260830124202 16 20 0.0 3.2 0.00 0.00 0.00 97 1019.6
20260830123703 16 292 0.0 0.0 0.00 0.00 0.00 97 1019.6
20260830123203 16 292 0.0 0.0 0.00 0.00 0.00 97 1019.6
20260830121202 15 292 0.0 0.0 0.00 0.00 0.00 97 1019.8
20260830120202 15 292 0.0 0.0 0.00 0.00 0.00 97 1019.9
20260830115202 14 292 0.0 0.0 0.00 0.00 0.00 97 1019.9
20260830114202 14 292 0.0 0.0 0.00 0.00 0.00 96 1020.0
20260830113703 14 292 0.0 0.0 0.00 0.00 0.00 96 1020.1
20260830112203 13 292 0.0 0.0 0.00 0.00 0.00 96 1020.2
20260830110204 13 292 0.0 0.0 0.00 0.00 0.00 96 1020.0
20260830105204 13 292 0.0 0.0 0.00 0.00 0.00 95 1020.1
20260830104704 13 292 0.0 0.0 0.00 0.00 0.00 96 1020.1
20260830104204 13 292 0.0 0.0 0.00 0.00 0.00 96 1020.0
20260830103204 13 292 0.0 0.0 0.00 0.00 0.00 95 1019.9
20260830102204 13 292 0.0 0.0 0.00 0.00 0.00 95 1020.0
20260830101204 13 292 0.0 0.0 0.00 0.00 0.00 95 1020.1
20260830100204 13 292 0.0 0.0 0.00 0.00 0.00 95 1020.2
20260830095704 13 292 0.0 0.0 0.00 0.00 0.00 96 1020.1
20260830094704 13 292 0.0 0.0 0.00 0.00 0.00 96 1019.9
20260830093704 13 292 0.0 0.0 0.00 0.00 0.00 96 1020.0
20260830092204 13 292 0.0 0.0 0.00 0.00 0.00 96 1020.0
20260830091204 13 292 0.0 0.0 0.00 0.00 0.00 96 1020.1
20260830084704 13 292 0.0 0.0 0.00 0.00 0.00 95 1020.3
20260830084204 13 292 0.0 0.0 0.00 0.00 0.00 95 1020.5
20260830083704 13 292 0.0 0.0 0.00 0.00 0.00 95 1020.5